Temperature
0 0 0 -0 -0 -0 -0 -0 -0 -0 0 1 1 1 1 1 2 2 2 2 2 2 2 2 2 2 2 2 3 3 3 3 3 3 3 3 3 3
-1 -1 -1 -1 -1 -1 -1 -1 -1 -1 -1 -0 0 0 0 1 1 1 1 1 1 1 1 1 1 1 2 2 2 2 2 2 2 2 3 3 3 3
-1 -1 -1 -1 -1 -1 -1 -1 -1 -1 -2 -1 -1 -1 -1 -0 0 0 0 0 1 1 0 1 1 1 1 1 1 1 1 1 2 2 2 2 2 2
-2 -2 -2 -2 -2 -2 -2 -2 -2 -2 -2 -2 -2 -1 -1 -1 -1 -1 -1 -0 -0 -0 -0 -0 -0 -0 0 0 0 0 0 0 1 1 1 2 2 2
-3 -3 -2 -3 -3 -3 -3 -3 -3 -3 -3 -3 -3 -2 -2 -2 -2 -1 -1 -1 -1 -1 -1 -1 -1 -1 -1 -1 -1 -0 -0 -0 -0 0 0 1 1 1
-3 -3 -3 -3 -3 -3 -3 -3 -3 -3 -3 -3 -3 -3 -3 -2 -2 -2 -2 -2 -2 -2 -2 -2 -2 -2 -2 -1 -1 -1 -1 -1 -1 -1 -1 -0 0 0
-4 -4 -4 -4 -4 -4 -4 -4 -4 -4 -4 -4 -4 -4 -3 -3 -3 -3 -3 -3 -3 -3 -3 -2 -2 -2 -2 -2 -2 -2 -2 -2 -2 -1 -1 -1 -1 -1
-5 -5 -5 -5 -5 -5 -5 -5 -5 -5 -4 -4 -4 -4 -4 -4 -4 -4 -4 -4 -4 -4 -3 -3 -3 -3 -3 -3 -3 -3 -3 -3 -2 -2 -2 -2 -2 -2
-6 -6 -6 -6 -5 -5 -5 -5 -5 -5 -5 -5 -5 -5 -5 -5 -4 -5 -5 -5 -5 -4 -4 -4 -4 -4 -4 -3 -3 -3 -3 -3 -3 -3 -3 -3 -3 -3
-6 -6 -6 -6 -6 -6 -6 -6 -6 -6 -5 -6 -6 -5 -5 -5 -5 -5 -5 -5 -5 -5 -5 -5 -5 -5 -4 -4 -4 -4 -4 -4 -4 -4 -3 -3 -3 -3
-7 -7 -7 -7 -7 -7 -7 -7 -7 -6 -6 -6 -6 -6 -6 -6 -6 -6 -6 -6 -6 -6 -6 -6 -6 -5 -5 -5 -5 -4 -4 -4 -4 -4 -4 -4 -4 -4
-8 -8 -8 -7 -7 -7 -7 -7 -7 -7 -7 -7 -7 -6 -6 -6 -6 -7 -7 -7 -7 -7 -6 -6 -6 -7 -6 -6 -5 -5 -5 -5 -5 -5 -5 -4 -5 -4
-9 -8 -8 -8 -8 -8 -8 -8 -8 -8 -8 -8 -8 -7 -7 -7 -7 -7 -7 -7 -7 -7 -7 -7 -7 -7 -7 -7 -6 -6 -6 -6 -6 -5 -5 -5 -5 -5
-9 -9 -9 -9 -9 -9 -9 -9 -9 -9 -9 -9 -9 -8 -8 -8 -8 -8 -8 -7 -7 -7 -7 -7 -8 -7 -8 -8 -7 -7 -6 -6 -6 -6 -6 -6 -6 -5
-10 -10 -10 -10 -10 -10 -9 -9 -9 -9 -9 -9 -9 -9 -9 -9 -8 -8 -8 -8 -8 -8 -8 -8 -8 -8 -8 -8 -8 -8 -7 -7 -7 -7 -7 -7 -6 -6
-10 -10 -10 -10 -11 -10 -10 -10 -10 -10 -10 -10 -10 -10 -10 -10 -9 -9 -9 -9 -9 -8 -8 -8 -8 -8 -8 -8 -8 -8 -8 -8 -8 -8 -8 -7 -7 -7
-11 -11 -11 -11 -11 -11 -11 -11 -11 -11 -11 -11 -11 -11 -11 -10 -10 -10 -10 -10 -10 -9 -9 -9 -9 -9 -9 -9 -9 -8 -8 -8 -8 -8 -8 -8 -8 -7
-12 -12 -12 -12 -12 -11 -11 -11 -11 -11 -11 -11 -11 -11 -11 -11 -11 -11 -11 -11 -11 -10 -10 -10 -10 -10 -10 -10 -9 -9 -9 -9 -9 -9 -9 -9 -8 -8
-12 -12 -12 -12 -12 -12 -12 -12 -12 -12 -12 -12 -12 -12 -12 -12 -11 -11 -11 -11 -11 -11 -11 -11 -11 -11 -11 -11 -10 -10 -10 -10 -10 -9 -9 -9 -9 -9
-13 -13 -13 -12 -12 -12 -12 -12 -12 -12 -12 -12 -12 -12 -12 -12 -12 -12 -12 -12 -12 -11 -11 -11 -11 -11 -11 -11 -11 -10 -10 -10 -10 -10 -10 -10 -10 -10
-13 -13 -13 -13 -13 -13 -13 -13 -13 -13 -13 -13 -13 -13 -13 -13 -13 -12 -12 -12 -12 -12 -12 -12 -11 -11 -11 -11 -11 -11 -11 -11 -11 -11 -11 -11 -11 -10
-14 -14 -14 -14 -14 -13 -13 -13 -13 -13 -13 -13 -13 -13 -13 -13 -13 -13 -13 -13 -13 -13 -12 -12 -12 -12 -12 -12 -12 -12 -12 -11 -11 -11 -11 -11 -12 -12
-14 -14 -14 -14 -14 -14 -14 -14 -14 -14 -14 -14 -14 -14 -14 -14 -14 -13 -13 -13 -13 -13 -13 -13 -12 -12 -13 -13 -13 -13 -13 -12 -12 -12 -11 -11 -11 -11
Wind_Speed
4 5 5 5 4 5 5 5 5 6 7 5 3 4 5 6 6 7 7 8 9 10 10 10 9 9 9 8 8 9 9 9 10 10 10 10 11 11
3 4 4 4 5 5 5 5 6 7 7 5 5 5 6 6 8 8 8 9 9 9 9 9 10 9 9 9 9 9 9 10 10 11 12 11 11 12
4 4 5 5 5 4 5 5 5 6 8 7 5 5 6 6 7 7 8 7 7 9 9 9 9 9 9 9 9 9 9 10 10 12 12 12 12 13
5 5 6 5 6 5 5 5 5 6 7 8 6 5 6 6 7 7 7 7 8 9 10 10 10 10 9 9 9 9 10 10 11 12 12 13 13 12
6 6 7 6 7 6 6 6 5 5 6 7 7 5 6 5 6 6 7 7 7 9 10 11 11 11 10 10 10 10 10 10 11 12 12 13 13 12
6 7 7 7 7 7 6 6 5 5 6 6 6 5 5 5 5 6 6 6 6 7 8 9 10 11 11 11 11 11 11 11 11 12 12 13 12 12
6 7 7 7 8 7 6 6 5 5 5 6 6 6 5 5 5 5 7 6 6 5 6 6 7 7 8 11 11 11 11 11 12 12 12 13 13 12
7 7 7 7 8 8 8 8 7 7 7 6 7 7 8 7 6 6 6 6 6 4 6 7 6 7 7 8 9 11 12 12 12 12 12 13 13 12
7 7 6 6 8 6 7 8 8 9 9 8 9 9 9 8 7 8 7 7 7 5 6 7 6 7 7 8 10 11 11 12 12 12 12 12 13 12
7 7 7 7 7 6 6 7 7 8 8 7 8 9 9 8 8 8 8 8 8 5 5 6 6 7 7 8 9 10 11 11 11 11 12 12 12 13
6 7 7 8 9 8 7 7 8 7 8 10 11 11 12 11 10 7 7 6 7 6 5 5 6 6 7 6 7 8 9 10 11 11 11 11 12 12
6 6 8 9 10 9 7 7 8 8 7 8 9 10 10 10 10 8 7 7 6 6 5 5 5 4 4 5 5 6 7 9 11 11 11 11 12 9
6 6 6 10 11 11 9 7 9 9 8 8 7 7 7 7 7 7 7 7 7 6 4 4 5 5 5 4 5 6 6 7 8 9 10 11 11 10
6 6 6 10 10 10 9 9 10 9 6 6 6 6 6 6 6 7 8 9 9 9 8 7 6 6 6 6 5 5 6 7 7 7 7 9 11 12
7 8 9 10 10 8 9 9 8 6 6 6 6 6 6 6 6 6 6 7 8 8 8 9 8 7 7 7 6 6 6 6 6 6 6 7 7 7
6 7 9 9 8 8 7 7 6 6 6 6 6 6 6 6 5 5 5 4 5 5 6 7 8 8 7 8 7 7 6 5 5 6 6 7 7 7
6 5 5 5 5 5 5 5 5 5 5 5 6 6 6 6 6 5 4 5 5 6 5 5 6 6 8 7 8 8 7 6 6 6 6 7 6 6
6 5 5 5 5 5 5 5 5 5 5 5 5 5 6 6 6 5 5 5 6 6 6 5 4 4 5 6 8 8 7 6 6 6 6 7 7 6
5 5 5 6 6 6 5 5 5 5 5 5 5 5 6 6 6 6 5 5 6 6 6 5 5 5 6 7 4 6 6 5 5 6 6 6 7 7
4 5 5 6 6 5 5 5 5 5 5 5 5 5 5 5 5 6 6 6 6 6 6 5 6 6 7 6 5 5 6 5 5 6 6 6 6 8
5 5 6 6 6 6 5 5 5 5 5 5 5 5 5 5 5 5 6 8 7 6 6 6 6 6 4 3 4 4 4 5 5 5 5 5 6 5
5 5 5 6 6 6 6 5 5 5 5 5 5 5 5 5 5 6 5 5 6 6 6 5 4 3 3 4 5 5 5 5 5 7 8 8 5 4
6 6 6 6 6 6 6 6 6 6 5 5 5 5 5 5 5 5 5 5 5 5 5 4 3 3 3 4 4 4 5 5 4 4 5 7 9 11
Wind_Direction
258 253 252 259 255 252 253 251 252 258 261 259 263 267 272 272 278 277 276 280 277 276 275 274 272 269 270 274 279 279 276 273 269 264 264 258 254 253
268 259 260 267 259 252 250 251 250 254 261 266 265 278 276 278 276 276 275 276 273 277 278 275 272 270 269 272 275 275 275 272 272 264 265 257 257 253
268 268 265 270 265 257 254 251 253 252 260 271 273 274 268 272 278 277 277 274 273 272 274 276 275 274 270 268 268 269 271 270 273 269 268 259 258 255
266 266 267 275 268 259 256 256 255 253 257 267 274 275 270 272 276 277 281 277 276 274 273 273 274 273 270 270 267 267 270 269 271 273 271 266 259 259
264 266 267 273 272 262 258 256 259 262 263 266 272 275 275 274 274 276 279 280 279 274 271 269 271 271 268 269 270 269 268 269 271 274 273 274 262 261
268 268 266 265 269 265 260 257 261 261 263 264 271 275 275 277 269 267 272 272 274 276 275 274 272 265 265 268 268 268 268 270 270 271 272 275 271 266
272 271 268 271 275 268 265 264 260 258 259 262 265 274 271 273 267 267 268 275 270 269 276 274 271 265 264 264 262 262 265 269 270 271 273 272 272 270
274 277 274 272 271 266 265 265 263 257 256 257 262 263 268 270 269 267 272 274 268 263 267 269 266 263 264 262 263 261 263 267 269 268 270 270 270 268
271 274 275 278 275 269 268 268 265 262 257 256 259 261 267 265 269 268 263 265 266 271 268 265 265 266 270 270 265 258 263 267 266 264 264 266 269 267
268 268 270 276 271 272 272 267 267 265 263 261 261 264 269 272 266 265 268 269 270 264 254 261 266 269 274 272 261 256 260 263 265 266 267 268 272 268
272 269 269 273 272 272 270 267 270 271 269 266 270 273 272 268 265 266 261 258 265 263 247 254 265 274 272 266 265 260 259 263 266 266 268 271 276 271
275 271 267 272 275 272 267 265 267 273 277 276 270 269 266 260 253 249 251 253 261 259 237 243 259 270 267 258 266 271 265 265 267 267 270 271 275 269
274 275 275 277 277 276 273 266 269 279 275 270 268 267 265 261 257 254 252 250 253 256 247 241 252 254 257 268 269 267 267 275 273 268 266 266 268 265
274 277 279 283 282 281 277 274 276 278 270 267 265 266 265 263 262 261 258 256 255 259 252 245 247 246 254 266 269 267 271 272 270 268 267 268 269 266
274 276 281 286 284 280 280 280 278 270 264 263 264 267 271 273 272 268 265 262 263 263 253 244 245 245 246 254 262 269 275 274 261 263 268 271 267 264
280 279 283 282 277 277 279 279 272 268 266 265 269 272 274 271 267 262 263 260 264 268 264 256 252 244 248 253 257 261 262 258 260 267 271 271 264 256
285 281 278 282 277 277 278 277 275 270 267 269 270 271 272 269 266 264 260 258 256 259 266 264 263 259 253 254 255 255 259 265 267 269 270 271 270 261
284 276 276 278 276 275 276 277 276 274 274 274 271 270 271 270 266 265 260 255 255 258 261 263 262 269 268 259 243 251 256 263 269 269 269 273 275 273
284 276 278 280 282 279 273 271 275 278 278 275 272 271 271 270 262 258 258 257 259 260 261 260 254 253 261 268 255 234 253 264 267 269 267 269 273 276
284 281 281 283 284 284 280 276 277 280 276 273 273 273 270 268 265 257 255 257 261 265 264 259 252 248 251 263 273 275 262 259 264 269 277 282 282 283
288 285 283 282 282 283 283 282 280 279 277 274 272 271 270 269 268 266 261 261 264 263 262 264 265 268 263 257 265 272 278 277 271 270 275 280 284 280
290 288 287 286 284 283 282 280 278 277 274 270 272 273 272 269 268 269 268 264 264 266 271 275 277 267 244 241 257 277 288 300 299 288 276 265 261 257
292 290 288 288 285 283 280 277 274 274 271 269 270 272 272 272 271 269 270 270 271 273 275 277 279 266 254 252 262 278 294 303 306 309 299 289 275 271
Height
1505 1504 1504 1504 1504 1504 1505 1505 1505 1503 1502 1501 1501 1501 1500 1500 1499 1499 1499 1498 1499 1498 1499 1498 1498 1498 1498 1497 1497 1497 1497 1498 1498 1499 1500 1501 1502 1503
1499 1499 1499 1499 1499 1499 1499 1499 1499 1499 1497 1496 1496 1496 1495 1495 1494 1494 1493 1493 1493 1493 1493 1493 1492 1492 1492 1491 1491 1492 1492 1492 1493 1493 1494 1495 1496 1496
1494 1494 1494 1494 1493 1493 1493 1493 1493 1494 1492 1491 1491 1491 1490 1489 1489 1488 1487 1487 1486 1487 1487 1487 1487 1486 1486 1486 1486 1486 1486 1486 1486 1487 1488 1488 1489 1490
1489 1489 1488 1488 1488 1487 1487 1487 1488 1488 1488 1485 1485 1485 1485 1484 1484 1483 1482 1481 1481 1481 1481 1481 1481 1480 1480 1480 1480 1480 1480 1480 1480 1480 1481 1482 1482 1483
1484 1483 1483 1483 1482 1482 1482 1482 1482 1482 1482 1481 1479 1480 1479 1479 1478 1478 1477 1476 1475 1475 1475 1475 1474 1474 1474 1474 1474 1474 1474 1474 1474 1474 1474 1474 1475 1476
1478 1478 1477 1477 1477 1476 1476 1476 1476 1476 1476 1476 1474 1474 1474 1473 1473 1472 1470 1470 1469 1469 1468 1468 1468 1468 1468 1468 1468 1467 1467 1467 1467 1467 1468 1468 1468 1469
1473 1472 1472 1471 1471 1471 1471 1471 1471 1470 1470 1469 1469 1468 1468 1468 1467 1466 1465 1464 1463 1463 1462 1462 1462 1461 1461 1461 1461 1461 1461 1461 1461 1461 1461 1461 1461 1462
1467 1467 1466 1466 1465 1465 1465 1465 1465 1465 1464 1464 1463 1462 1462 1462 1462 1461 1460 1459 1457 1457 1457 1456 1456 1455 1455 1455 1455 1455 1455 1455 1455 1455 1455 1455 1455 1456
1462 1461 1461 1460 1460 1459 1459 1459 1459 1459 1459 1459 1457 1456 1456 1456 1456 1455 1454 1453 1452 1451 1451 1449 1450 1449 1449 1449 1449 1448 1448 1448 1449 1449 1449 1449 1449 1449
1456 1456 1455 1455 1454 1453 1453 1453 1452 1453 1453 1452 1451 1450 1450 1450 1450 1450 1449 1448 1447 1446 1446 1444 1443 1443 1443 1442 1442 1442 1442 1442 1442 1442 1442 1442 1442 1443
1451 1450 1450 1449 1449 1448 1448 1447 1446 1446 1446 1446 1445 1444 1443 1444 1444 1444 1443 1442 1440 1440 1440 1439 1438 1437 1436 1435 1435 1435 1435 1436 1436 1436 1436 1436 1436 1436
1446 1445 1445 1444 1444 1443 1442 1441 1439 1439 1439 1438 1438 1437 1437 1436 1437 1437 1436 1436 1434 1434 1433 1434 1433 1432 1430 1428 1429 1429 1429 1429 1429 1429 1429 1429 1429 1429
1441 1440 1439 1439 1438 1437 1436 1435 1434 1434 1432 1432 1431 1430 1429 1429 1429 1429 1430 1430 1429 1428 1428 1428 1427 1427 1426 1423 1422 1423 1423 1422 1422 1422 1422 1422 1423 1423
1436 1435 1434 1434 1433 1431 1430 1429 1429 1428 1427 1425 1424 1423 1422 1422 1422 1422 1422 1422 1422 1422 1422 1422 1421 1421 1420 1418 1416 1416 1416 1416 1416 1416 1416 1416 1416 1416
1432 1430 1429 1428 1427 1426 1424 1423 1423 1422 1420 1419 1418 1417 1416 1415 1415 1415 1415 1415 1415 1415 1415 1415 1415 1415 1415 1413 1411 1410 1410 1409 1410 1410 1409 1409 1409 1409
1427 1425 1424 1423 1422 1420 1419 1418 1417 1416 1415 1413 1412 1411 1410 1410 1409 1409 1408 1408 1408 1408 1409 1409 1409 1409 1408 1407 1406 1405 1405 1404 1403 1404 1403 1403 1403 1402
1422 1421 1419 1418 1416 1415 1413 1412 1412 1411 1409 1408 1407 1406 1405 1404 1404 1403 1402 1402 1402 1401 1401 1402 1402 1402 1401 1401 1400 1399 1398 1398 1398 1398 1397 1395 1395 1395
1418 1416 1414 1413 1411 1410 1408 1407 1407 1405 1404 1403 1402 1401 1400 1399 1398 1398 1397 1397 1396 1396 1395 1395 1395 1395 1395 1394 1394 1393 1392 1392 1392 1392 1391 1389 1387 1388
1414 1412 1410 1409 1407 1406 1404 1403 1402 1401 1400 1399 1397 1396 1395 1394 1393 1393 1392 1392 1391 1390 1390 1390 1390 1389 1388 1387 1387 1388 1387 1386 1386 1386 1385 1383 1382 1381
1409 1407 1406 1404 1403 1401 1400 1399 1397 1396 1395 1394 1393 1392 1390 1389 1388 1388 1387 1387 1386 1386 1385 1385 1385 1384 1383 1382 1381 1381 1382 1382 1381 1379 1378 1377 1377 1376
1404 1403 1401 1400 1399 1397 1395 1394 1393 1391 1390 1389 1389 1387 1386 1385 1384 1383 1382 1382 1382 1381 1380 1379 1379 1380 1379 1378 1377 1376 1377 1377 1376 1375 1373 1372 1370 1370
1400 1399 1397 1396 1394 1393 1391 1390 1388 1387 1386 1385 1384 1383 1382 1381 1379 1379 1378 1378 1377 1376 1375 1375 1374 1374 1374 1373 1372 1371 1371 1371 1371 1371 1370 1368 1366 1365
1396 1395 1393 1391 1390 1388 1387 1385 1384 1382 1381 1380 1379 1378 1377 1376 1375 1375 1374 1374 1373 1372 1371 1370 1370 1370 1370 1370 1369 1368 1367 1367 1366 1365 1365 1364 1363 1362